Find Starlink 35008

NORAD ID: 65408 Int'l Des: 2025-192 Owner: SPXS Country: US Constellation: starlink operational
LEOCIRCULAR

Live-Position

3D-Globus wird geladen...

Über Starlink 35008

Beschreibung wird geladen...

Nächste Überflüge

Passes for default location (London). Set your location on the main map for personalized predictions.

Höhenverlauf

Loading altitude history...

Zweizeiliger Elementsatz

1 65408U 25192E 26105.58932866 .00005630 00000-0 20207-3 0 9991
2 65408 53.1599 60.9607 0001698 88.4034 271.7161 15.30200630 35032
Epoch: 15. Apr. 2026 • Age: 17 hours

Aktueller Status

Höhe 480.9 km
Geschwindigkeit 7.62 km/s
Subsatellitenpunkt -19.06°S, 89.03°E
Startdatum 31. Aug. 2025
Alter 0.6 years
Typ internet

Technische Details

Klassifizierung Payload
Masse 575.00 kg
Trockenmasse 530.00 kg
Gesamtmasse 575.00 kg
Länge 0.30 m
Durchmesser 4.10 m
Spannweite 29.00 m
Form Box + pan
Hersteller SPXS
Bus-Typ Starlink V2MO
Phasenstatus In Orbit
Besitzer/Staat SPXS/US

Most Searched